Terminal Aerodrome Forecast
Issued by NWS Twin Cities, MN

Home | Current Version | Previous Version | Graphics & Text | Print | Product List | Glossary On
Versions: 1 2 3 4 5 6 7 8 9 10 11 12 13 14 15 16 17 18 19 20 21 22 23 24 25 26 27 28 29 30 31 32 33
000
FTUS43 KMPX 282344
TAFMSP
TAF
KMSP 282344Z 2900/3006 15011KT P6SM SCT035 BKN100
     FM290100 13008KT P6SM SCT250
     FM291000 VRB03KT 6SM BR BCFG SCT003
     FM291400 11004KT P6SM SKC=

USA.gov is the U.S. government's official web portal to all federal, state and local government web resources and services.